SFERA 2 (42913 NORAD) Tracking and Keplerian Element Data

This shows tracking and keplerian element data for the satellite.

Feedback or suggestion? Click here.




ElementValue
Catalog42913
NameSFERA 2
Epoch Orbit7148
Epoch Day319.98812752
Epoch Year2018
RAAN289.3703
Inclination51.6308
Eccentricity0.0008059
Argument of Perigee91.1692
Mean Anonmoly269.0236
Mean Motion16.03252206
Decay Rate0.00385969
L11 42913U 98067NC 18319.98812752 .00385969 77575-4 60848-3 0 9997
L22 42913 51.6308 289.3703 0008059 91.1692 269.0236 16.03252206 71481

Live tracking and technical data element details for SFERA 2 (NORAD 42913). SFERA 2 can be tracked NOW for your location showing map with azimuth and elevation plus other details from your city location.

Track the satellite on the map from your city or location and see movement details for azimuth, elevation, latitude, longitude, range, height, and movement on the map or in text.







IsCatalogInMostPopularTable: catalog: 42913, numindb: 159
Update: records affected: 1



GetName: 42913 SFERA 2

Hit Count: updated at: Fri, 16 Nov 2018 10:07:28 GMT